ATLAS 5 CENTAUR DEB, 44677

Orbit data source: Space-Track

ATLAS 5 CENTAUR DEB, 44677 is space debris in HEO originally from a launch on Wed, 17 Oct 2018 UTC launched from the Air Force Eastern Test Range (AFETR). Debris objects in space refer to the collection of defunct objects orbiting the Earth. Examples of debris include non-operational satellites, rocket bodies, and fragments generated from explosions, collisions, or faulty payload assembly.

Loading next visibility...
ATLAS 5 CENTAUR DEB details
Identifier
44677, 2018-079AP
Orbit
HEO
Last TLE update2 days ago
Origin
Flag of USULA (US)
ManufacturerULA Decatur
MissionSpacecraft
Bus & MotorUnknown
MassUnknown
Launch date (UTC)
2018-10-17 (6 years ago)
Launch vehicleUnknown
Launch site
Air Force Eastern Test Range (AFETR)
Object type
Payload
Rocket body
Debris
Shape & HBRUnknown
Radar Cross SectionRCS unknown

Expand to show TLE details & history

TLE from 2 days ago
0 ATLAS 5 CENTAUR DEB
1 44677U 18079AP  24359.59032934 -.00000101  00000-0  00000-0 0  9994
2 44677  12.0901  98.3432 4484524 188.0404 161.1559  1.78557455 36147
Epoch: 2024-12-24T14:10Z
Definitive object data (Epoch: 2024-12-24T14:10:04.454Z)
Latitude
Longitude152.17753°
Altitude34,884.294 km
Speed2.331 km/s
True Right ascension06h 33m 10s
True Declination0° 00' 00"
Sunlit
Object was in daylight at TLE epoch
Visualization TLE readout
Latitude10.8851°
Longitude-144.36083°
Altitude24,262.713 km
Speed3.483 km/s
Apparent Right ascension10h 49m 55s
Apparent Declination3° 52' 32"
Sunlit
Object is in daylight
Visualization observer readout
Local Sidereal Time10:31:59
Azimuth172.423° S
Elevation53.732°
Doppler factor1
Orbital elements
Apogee altitude35,195.504 km
Perigee altitude9,452.443 km
Semi-major axis28,702.11 km
Eccentricity0.4484524
Inclination12.0901°
RAAN98.3432°
Arg. of periapsis188.0404°
True anomaly171.92889°
Mean anomaly161.1559°
Eccentric anomaly166.95538°
Mean motion0.44635 °/min
BSTARUnknown
Orbital period806.55 mins
Loading maneuver chart data...

ATLAS 5 CENTAUR DEB Visibility forecast

Observer location: undefined°, undefined

Span
Click to sort rows by Start time (UTC) header in descending order
Start Az.
Max El. time (UTC)
Max El. Az.
Max El.
End time (UTC)
End Az.
129 mins2024-12-26 11:10:41.430Z172.428° S2024-12-26 11:11:41.430Z172.211° S38.869°2024-12-26 13:19:41.430Z109.814° ESE
365 mins2024-12-27 05:05:41.430Z226.82° WSW2024-12-27 09:34:41.430Z227° WSW28.217°2024-12-27 11:10:41.430Z236.181° WSW
|